Езнас

Литва     54°35′59″N   24°10′18″E
темп.,
°C
ветер,
м/с
пор.,
м/с
влажн.,
%
обл.,
%
осадки,
мм/ч
давл.,
гПа
погр.,
м
13 мая, чт
чт1300:00+10вюв38810 0.0 1012124
03:00+9вюв2283100 0.0 101117
06:00+9ссв128299 0.0 100811
09:00+9ссз2794100 1.4 1005267
12:00+14всв567268 2.2 10031208
15:00+12всв558198 3.5 1002860
18:00+11вюв468989 0.8 1002549
21:00+9юв71294100 1.9 1003547
14 мая, пт
пт1400:00+9вюв61194100 0.7 1002485
03:00+10юв61093100 0.9 1002441
06:00+9вюв599787 0.4 1001387
09:00+11вюв499792 2.1 1001374
12:00+13ююв489292 0.3 1001671
15:00+15ю698248 1.4 1001924
18:00+15ю478299 1.4 1002371
21:00+13зюз228938 2.4 100221
15 мая, сб
сб1500:00+9сз23955 0.0 100439
03:00+7зсз22965 0.0 100536
06:00+7зсз22977 0.0 100631
09:00+11зюз238349 0.0 1007378
12:00+16зюз336416 0.0 10071006
15:00+18зюз335797 0.1 10071607
18:00+16з347552 0.8 1008689
21:00+12юз33905 1.2 100842
16 мая, вс
вс1600:00+10ююз3393100 0.0 100945
03:00+10ююз229473 0.0 101031
06:00+9ю349795 0.0 101073
09:00+13ююв468379 0.0 1010458
12:00+18ююв5762100 0.1 10091345
15:00+17ююв6973100 1.4 10081196
18:00+18ююв697470 1.6 10071163
21:00+14юв51288100 2.7 1006319
17 мая, пн
пн1700:00+13юв41195100 2.4 1006473
03:00+13ююв3799100 4.8 1005267
06:00+11з3598100 3.7 1006267
09:00+11зсз2597100 4.3 1007247
12:00+15зюз237389 0.3 1008946
15:00+17зюз236067 1.4 10071433
18:00+17з33650 0.8 1008913
21:00+13всв22803 1.0 100710